This demonstration page uses our WeatherBlox Daily Observations layout. Learn more.

Hourly Observations for February 3, 2018

Temp ( °F °C ) Dew Point ( °F °C ) Humidity (%) Winds ( mph kmh ) Pressure ( in mb ) Visibility ( mi km ) Precip ( " mm )
12:15 am 00:15 Partly Cloudy 33 0.7 21 -6 61 61 S 9 15 30.06 1018 10 16.0934 0 0
12:35 am 00:35 Clear 33 0.6 22 -5.8 63 63 SSW 10 17 30.06 1018 10 16.0934 0 0
12:55 am 00:55 Partly Cloudy 33 0.3 22 -5.7 64 64 SSW 9 15 30.03 1017 10 16.0934 0 0
1:15 am 01:15 Partly Cloudy 33 0.7 22 -5.3 65 65 SSW 9 15 30.03 1017 10 16.0934 0 0
1:35 am 01:35 Partly Cloudy 33 0.6 23 -5 66 66 SSW 9 15 30.03 1017 10 16.0934 0 0
1:55 am 01:55 Clear 33 0.6 23 -5.1 66 66 SSW 10 17 30 1016 10 16.0934 0 0
2:15 am 02:15 Clear 32 0.1 23 -5.2 68 68 SW 12 19 30 1016 10 16.0934 0 0
2:35 am 02:35 Partly Cloudy 33 0.4 23 -5 67 67 SW 12 19 30 1016 10 16.0934 0 0
2:55 am 02:55 Partly Cloudy 33 0.8 23 -5.1 65 65 SW 10 17 29.97 1015 10 16.0934 0 0
3:15 am 03:15 Clear 33 0.6 23 -5.2 65 65 SW 9 15 29.97 1015 10 16.0934 0 0
3:35 am 03:35 Clear 34 1 22 -5.6 62 62 SW 15 24 29.97 1015 10 16.0934 0 0
3:55 am 03:55 Partly Cloudy 35 1.5 22 -5.7 59 59 SW 13 20 29.97 1015 10 16.0934 0 0
4:15 am 04:15 Cloudy 35 1.5 22 -5.6 60 60 SW 15 24 29.91 1013 10 16.0934 0 0
4:35 am 04:35 Partly Cloudy 33 0.8 22 -5.8 62 62 SW 13 20 29.94 1014 10 16.0934 0 0
4:55 am 04:55 Clear 33 0.4 21 -5.9 63 63 SW 10 17 29.94 1014 10 16.0934 0 0
5:15 am 05:15 Clear 32 0 21 -6.1 64 64 SW 12 19 29.91 1013 10 16.0934 0 0
5:35 am 05:35 Clear 32 0 21 -6.3 63 63 SSW 10 17 29.91 1013 10 16.0934 0 0
5:55 am 05:55 Clear 32 0 21 -6.3 63 63 SW 12 19 29.91 1013 10 16.0934 0 0
6:15 am 06:15 Clear 32 0 20 -6.5 62 62 SW 7 11 29.91 1013 10 16.0934 0 0
6:35 am 06:35 Clear 32 0 20 -6.6 62 62 SW 14 22 29.91 1013 10 16.0934 0 0
6:55 am 06:55 Clear 32 0 20 -6.6 62 62 SW 15 24 29.91 1013 10 16.0934 0 0
7:15 am 07:15 Partly Cloudy 32 -0.1 20 -6.6 62 62 SW 9 15 29.91 1013 10 16.0934 0 0
7:35 am 07:35 Mostly Cloudy 32 0 20 -6.5 62 62 SW 9 15 29.88 1012 10 16.0934 0 0
7:55 am 07:55 Cloudy 32 0 20 -6.4 62 62 S 8 13 29.88 1012 10 16.0934 0 0
8:15 am 08:15 Cloudy 32 0.1 21 -6.3 62 62 S 9 15 29.88 1012 10 16.0934 0 0
8:35 am 08:35 Cloudy 33 0.3 21 -6.1 63 63 SSW 13 20 29.88 1012 10 16.0934 0 0
8:55 am 08:55 Cloudy 33 0.5 21 -5.9 63 63 W 13 20 29.88 1012 10 16.0934 0 0
9:15 am 09:15 Cloudy 34 1 23 -5.2 64 64 SW 6 9 29.85 1011 10 16.0934 0 0
9:35 am 09:35 Mostly Cloudy 34 1 23 -5 65 65 SSW 8 13 29.85 1011 10 16.0934 0 0
9:55 am 09:55 Partly Cloudy 36 2 24 -4.6 62 62 SW 9 15 29.83 1010 10 16.0934 0 0
10:15 am 10:15 Sunny 36 2.3 24 -4.4 62 62 SW 7 11 29.85 1011 10 16.0934 0 0
10:35 am 10:35 Partly Cloudy 38 3.6 25 -3.9 58 58 SW 10 17 29.85 1011 10 16.0934 0 0
10:55 am 10:55 Partly Cloudy 41 5.1 26 -3.2 55 55 SW 12 19 29.83 1010 10 16.0934 0 0
11:15 am 11:15 Sunny 43 5.9 27 -2.8 54 54 SW 9 15 29.83 1010 10 16.0934 0 0
11:35 am 11:35 Sunny 46 7.6 29 -1.8 52 52 WSW 9 15 29.77 1008 10 16.0934 0 0
11:55 am 11:55 Sunny 49 9.5 31 -0.5 50 50 W 13 20 29.77 1008 10 16.0934 0 0
12:15 pm 12:15 Sunny 53 11.5 33 0.7 48 48 W 13 20 29.71 1006 10 16.0934 0 0
12:35 pm 12:35 Partly Cloudy 55 12.6 35 1.5 47 47 WNW 17 28 29.71 1006 10 16.0934 0 0
12:55 pm 12:55 Partly Cloudy 56 13.5 35 1.6 45 45 NW 22 35 29.68 1005 10 16.0934 0 0
1:15 pm 13:15 Sunny 55 12.7 35 1.9 48 48 NW 20 31 29.71 1006 10 16.0934 0 0
1:35 pm 13:35 Sunny 55 12.5 36 2 49 49 NW 22 35 29.71 1006 10 16.0934 0 0
1:55 pm 13:55 Sunny 55 13 36 2 47 47 NW 17 28 29.71 1006 10 16.0934 0 0
2:15 pm 14:15 Sunny 56 13.1 35 1.9 47 47 NNW 20 31 29.71 1006 10 16.0934 0 0
2:35 pm 14:35 Sunny 55 12.5 35 1.6 48 48 NNW 14 22 29.71 1006 10 16.0934 0 0
2:55 pm 14:55 Sunny 55 12.7 34 1 45 45 NNW 13 20 29.71 1006 10 16.0934 0 0
3:15 pm 15:15 Sunny 55 12.9 32 0 41 41 NW 14 22 29.71 1006 10 16.0934 0 0
3:35 pm 15:35 Sunny 54 12.3 32 0 43 43 NW 12 19 29.71 1006 10 16.0934 0 0
3:55 pm 15:55 Sunny 55 12.7 32 -0.2 41 41 NNW 13 20 29.71 1006 10 16.0934 0 0
4:15 pm 16:15 Sunny 55 12.6 32 0 42 42 NW 10 17 29.74 1007 10 16.0934 0 0
4:35 pm 16:35 Sunny 53 11.5 32 0 45 45 NW 12 19 29.74 1007 10 16.0934 0 0
4:55 pm 16:55 Partly Cloudy 52 11 32 0.1 47 47 NW 7 11 29.74 1007 10 16.0934 0 0
5:15 pm 17:15 Mostly Cloudy 50 10.2 33 0.5 51 51 NW 3 6 29.74 1007 10 16.0934 0 0
5:35 pm 17:35 Mostly Cloudy 49 9.4 33 0.3 53 53 N 6 9 29.77 1008 10 16.0934 0 0
5:55 pm 17:55 Partly Cloudy 46 7.8 32 0 58 58 N 6 9 29.77 1008 10 16.0934 0 0
6:15 pm 18:15 Clear 43 6.1 31 -0.6 63 63 NNE 6 9 29.8 1009 10 16.0934 0 0
6:35 pm 18:35 Clear 42 5.6 31 -0.5 65 65 NNE 7 11 29.83 1010 10 16.0934 0 0
6:55 pm 18:55 Partly Cloudy 41 5 31 -0.7 67 67 N 7 11 29.83 1010 10 16.0934 0 0
7:15 pm 19:15 Partly Cloudy 39 4 30 -1 70 70 N 8 13 29.83 1010 10 16.0934 0 0
7:35 pm 19:35 Mostly Cloudy 38 3.2 30 -1.2 73 73 NNE 7 11 29.85 1011 10 16.0934 0 0
7:55 pm 19:55 Cloudy 39 3.9 31 -0.5 73 73 N 7 11 29.88 1012 10 16.0934 0 0
8:15 pm 20:15 Cloudy 39 3.8 31 -0.6 73 73 N 7 11 29.88 1012 10 16.0934 0 0
8:35 pm 20:35 Cloudy 37 3 31 -0.7 77 77 NNE 9 15 29.88 1012 10 16.0934 0 0
8:55 pm 20:55 Mostly Cloudy 37 2.5 31 -0.4 81 81 NNE 12 19 29.91 1013 10 16.0934 0 0
9:15 pm 21:15 Mostly Cloudy 36 2.2 31 -0.3 84 84 NNE 16 26 29.91 1013 10 16.0934 0 0
9:35 pm 21:35 Cloudy 35 1.8 31 -0.5 85 85 NNE 17 28 29.94 1014 10 16.0934 0 0
9:55 pm 21:55 Cloudy 35 1.5 31 -0.5 87 87 NNE 17 28 29.97 1015 10 16.0934 0 0
10:15 pm 22:15 Cloudy 33 0.5 29 -1.4 87 87 NNE 21 33 30 1016 10 16.0934 0 0
10:35 pm 22:35 Cloudy 32 -0.1 28 -2.3 85 85 N 24 39 30.03 1017 10 16.0934 0 0
10:55 pm 22:55 Cloudy 29 -1.9 25 -4.1 85 85 N 21 33 30.06 1018 10 16.0934 0 0
11:15 pm 23:15 Mostly Cloudy 26 -3.2 22 -5.6 84 84 N 23 37 30.09 1019 10 16.0934 0 0
11:35 pm 23:35 Mostly Cloudy 25 -4 21 -6.3 84 84 N 24 39 30.15 1021 10 16.0934 0 0
11:55 pm 23:55 Cloudy 24 -4.3 19 -7.2 80 80 N 25 41 30.15 1021 10 16.0934 0 0

Powered by AerisWeather